Sterling, IL

3:12 PM CST on November 15, 2019 (GMT -0600)
Whiteside County-Bittorf

Weather History for KSQI - July, 2019

Change the Weather History Date:

Thursday, July 18, 2019

  Actual Average Record
Temperature  
Mean Temperature 80 °F -  
Max Temperature 90 °F 81 °F 102 °F (2012)
Min Temperature 71 °F 60 °F 53 °F (2014)
Cooling Degree Days 16    
Growing Degree Days 30 (Base 50)    
Moisture  
Dew Point 74 °F    
Average Humidity 85    
Maximum Humidity 100    
Minimum Humidity 70    
Precipitation  
Precipitation 0.09 in - - ()
Sea Level Pressure  
Sea Level Pressure 29.52 in    
Wind  
Wind Speed 4 mph (East)    
Max Wind Speed 10 mph    
Max Gust Speed 17 mph    
Visibility 10 miles    
Events Rain , Thunderstorm    
Averages and records for this station are not official NWS values.
T = Trace of Precipitation, MM = Missing Value Source: NWS Daily Summary

Daily Weather History Graph

Daily Weather History Graph

Search for Another Location

Airport or City:

Astronomy

Jul. 18, 2019 Rise Set
Actual Time 5:39 AM CDT 8:29 PM CDT
Civil Twilight 5:06 AM CDT 9:02 PM CDT
Nautical Twilight 4:25 AM CDT 9:43 PM CDT
Astronomical Twilight 3:37 AM CDT 10:31 PM CDT
Moon 9:54 PM CDT (7/18) 7:09 AM CDT (7/18)
Length of Visible Light 15h 55m
Length of Day
14h 50m
Full, 97% of the Moon is Illuminated
Jul 18
Full
Jul 24
Last Quarter
Jul 31
New
Aug 7
First Quarter
Aug 15
Full

Hourly Weather History & Observations

Time (CDT) Temp. Heat Index Dew Point Humidity Pressure Visibility Wind Dir Wind Speed Gust Speed Precip Events Conditions
12:56 AM 73.0 °F - 72.0 °F 96% 29.50 in 10.0 mi Calm Calm - N/A   Mostly Cloudy
1:56 AM 73.9 °F - 70.0 °F 87% 29.47 in 10.0 mi Calm Calm - N/A   Scattered Clouds
2:56 AM 73.9 °F - 70.0 °F 87% 29.47 in 10.0 mi Calm Calm - N/A   Overcast
3:56 AM 73.9 °F - 69.1 °F 85% 29.44 in 10.0 mi Variable 3.5 mph - N/A   Overcast
4:56 AM 73.9 °F - 68.0 °F 82% 29.44 in 10.0 mi Variable 4.6 mph - N/A   Scattered Clouds
5:56 AM 75.0 °F - 69.1 °F 82% 29.42 in 10.0 mi SW 4.6 mph - N/A   Scattered Clouds
6:56 AM 75.0 °F - 70.0 °F 84% 29.47 in 10.0 mi NNW 10.4 mph - N/A   Overcast
7:04 AM 75.2 °F - 69.8 °F 83% 29.87 in 10.0 mi North 6.9 mph - N/A Thunderstorm Overcast
7:23 AM 73.4 °F - 71.6 °F 94% 29.88 in 4.0 mi Variable 3.5 mph - 0.08 in Rain , Thunderstorm Rain
7:44 AM 71.6 °F - 71.6 °F 100% 29.88 in 10.0 mi ENE 5.8 mph - 0.08 in Rain Light Rain
7:56 AM 72.0 °F - 71.1 °F 97% 29.48 in 10.0 mi ENE 4.6 mph - 0.08 in   Overcast
8:56 AM 73.0 °F - 71.1 °F 93% 29.49 in 10.0 mi East 9.2 mph - N/A   Overcast
9:07 AM 71.6 °F - 71.6 °F 100% 29.89 in 9.0 mi East 9.2 mph - N/A   Overcast
9:56 AM 73.9 °F - 72.0 °F 93% 29.48 in 10.0 mi ESE 9.2 mph - 0.00 in Rain Light Rain
10:13 AM 73.4 °F - 71.6 °F 94% 29.89 in 10.0 mi ESE 9.2 mph - 0.01 in Rain Light Rain
10:56 AM 75.9 °F - 73.0 °F 91% 29.50 in 10.0 mi ESE 8.1 mph - 0.01 in   Overcast
11:44 AM 75.2 °F - 73.4 °F 94% 29.91 in 10.0 mi East 8.1 mph - N/A Thunderstorm Thunderstorm
11:56 AM 77.0 °F - 73.9 °F 90% 29.49 in 10.0 mi East 8.1 mph - N/A   Overcast
12:56 PM 82.9 °F 90.8 °F 75.9 °F 79% 29.42 in 10.0 mi SE 8.1 mph 17.3 mph N/A   Clear
1:56 PM 86.0 °F 96.0 °F 75.9 °F 72% 29.39 in 10.0 mi SSE 8.1 mph 17.3 mph N/A   Clear
2:56 PM 88.0 °F 100.2 °F 77.0 °F 70% 29.39 in 10.0 mi Variable 6.9 mph - N/A   Mostly Cloudy
3:56 PM 89.1 °F 103.2 °F 78.1 °F 70% 29.38 in 10.0 mi Variable 5.8 mph - N/A   Mostly Cloudy
4:56 PM 90.0 °F 105.8 °F 79.0 °F 70% 29.36 in 10.0 mi Variable 6.9 mph - N/A   Mostly Cloudy
5:56 PM 89.1 °F 104.4 °F 79.0 °F 72% 29.36 in 10.0 mi Variable 4.6 mph - N/A   Mostly Cloudy
6:56 PM 89.1 °F 106.4 °F 80.1 °F 75% 29.36 in 10.0 mi Variable 3.5 mph - N/A   Partly Cloudy
7:56 PM 87.1 °F 101.5 °F 79.0 °F 77% 29.36 in 10.0 mi Calm Calm - N/A   Partly Cloudy
8:56 PM 84.9 °F 97.5 °F 79.0 °F 82% 29.37 in 10.0 mi Variable 3.5 mph - N/A   Clear
9:56 PM 84.0 °F 96.0 °F 79.0 °F 85% 29.38 in 10.0 mi Variable 3.5 mph - N/A   Clear
10:56 PM 82.9 °F 92.8 °F 78.1 °F 85% 29.38 in 10.0 mi Variable 3.5 mph - N/A   Clear
11:56 PM 82.0 °F 91.0 °F 78.1 °F 88% 29.38 in 10.0 mi Variable 5.8 mph - N/A   Clear